AirNav   GEt a FREE Bose Revolve Bluetooth Speaker
 
 1405 users online  

KTPF Peter O Knight Airport
Tampa, Florida, USA

GOING TO TAMPA?


FAA INFORMATION EFFECTIVE 06 DECEMBER 2018

Location

FAA Identifier: TPF
Lat/Long: 27-54-55.6000N / 082-26-57.8000W
27-54.926667N / 082-26.963333W
27.9154444 / -82.4493889
(estimated)
Elevation: 7.4 ft. / 2.3 m (surveyed)
Variation: 05W (2010)
From city: 3 miles S of TAMPA, FL
Time zone: UTC -5 (UTC -4 during Daylight Saving Time)
Zip code: 33606

Airport Operations

Airport use: Open to the public
Activation date: 04/1940
Control tower: no
ARTCC: MIAMI CENTER
FSS: SAINT PETERSBURG FLIGHT SERVICE STATION
NOTAMs facility: TPF (NOTAM-D service available)
Attendance: 0700-1900
Pattern altitude: 907.4 ft. MSL
Wind indicator: lighted
Segmented circle: yes
Lights: ACTVT MIRL RY 04/22 AND 18/36, VASI RY 04, REIL RY 22 AND PAPI RY 36 - CTAF.
Beacon: white-green (lighted land airport)
Operates sunset to sunrise.

Airport Communications

CTAF/UNICOM: 122.725
WX AWOS-3: 118.925 (813-251-6824)
TAMPA APPROACH: 119.9
TAMPA DEPARTURE: 119.9
CLEARANCE DELIVERY: 119.8(IFR)
WX ASOS at TPA (6 nm NW): PHONE 813-873-7228
WX AWOS-3 at VDF (8 nm NE): 121.125 (813-630-0924)
WX ASOS at PIE (13 nm W): PHONE 727-531-3456
WX ASOS at SPG (13 nm SW): 118.875 (727-821-4334)
WX AWOS-3 at PCM (16 nm E): 120.025 (813-764-8259)
WX AWOS-3P at CLW (17 nm W): 119.225 (727-449-2184)

Nearby radio navigation aids

VOR radial/distance  VOR name  Freq  Var
PIEr093/12.5ST PETERSBURG VORTAC116.4005W
LALr259/23.5LAKELAND VORTAC116.0001E
SRQr016/31.1SARASOTA VOR/DME117.0005W

 
NDB name  Hdg/Dist  Freq  Var  ID
COSME164/11.036805WTP - .--.
CAPOK115/14.336005WPI .--. ..

Airport Services

Fuel available: 100LL JET-A
Parking: hangars and tiedowns
Airframe service: MAJOR
Powerplant service: MAJOR
Bottled oxygen: LOW
Bulk oxygen: HIGH/LOW

Runway Information

Runway 4/22

Dimensions: 3583 x 100 ft. / 1092 x 30 m
Surface: asphalt, in good condition
Weight bearing capacity: 
Single wheel: 20.0
Runway edge lights: medium intensity
RUNWAY 4  RUNWAY 22
Latitude: 27-54.653480N27-55.126017N
Longitude: 082-27.244095W082-26.843927W
Elevation: 6.5 ft.6.8 ft.
Traffic pattern: rightleft
Runway heading: 042 magnetic, 037 true222 magnetic, 217 true
Displaced threshold: 175 ft.177 ft.
Declared distances: TORA:3405 TODA:3405 ASDA:3405 LDA:3230TORA:3405 TODA:3405 ASDA:3405 LDA:3405
Markings: nonprecision, in good conditionnonprecision, in good condition
Visual slope indicator: 4-box VASI on left (3.00 degrees glide path)
Runway end identifier lights: yes
RY 22 REIL DSPLCD 213 FT FROM THLD.
Touchdown point: yes, no lightsyes, no lights
Obstructions: 15 ft. road, 609 ft. from runway, 27:1 slope to clear
RY 04 APCH RATIO 50:1 TO THE DSPLCD THLD.
50 ft. tank, 1200 ft. from runway, 20:1 slope to clear
RY 22 APCH RATIO 27:1 TO THE DSPLCD THLD.

Runway 18/36

Dimensions: 2687 x 75 ft. / 819 x 23 m
Surface: asphalt, in good condition
Weight bearing capacity: 
PCN 8 /F/B/X/T
Single wheel: 27.0
Double wheel: 32.0
Runway edge lights: medium intensity
Gradient: ESTD
RUNWAY 18  RUNWAY 36
Latitude: 27-55.197585N27-54.757473N
Longitude: 082-26.887140W082-26.826555W
Elevation: 5.9 ft.6.3 ft.
Gradient: 0.1%0.1%
Traffic pattern: leftright
Runway heading: 178 magnetic, 173 true358 magnetic, 353 true
Displaced threshold: 203 ft.201 ft.
Declared distances: TORA:2486 TODA:2486 ASDA:2486 LDA:2283TORA:2484 TODA:2484 ASDA:2484 LDA:2283
Markings: nonprecision, in good conditionnonprecision, in good condition
Visual slope indicator: 2-light PAPI on right (3.00 degrees glide path)
Touchdown point: yes, lightedyes, no lights
Obstructions: 6 ft. fence, 200 ft. from runway, 93 ft. right of centerline
6 FT FENCE 125 FT R OF CNTRLN 195 FT FROM END OF RY.
15 ft. road, 620 ft. from runway, 28:1 slope to clear
RY 36 APCH RATIO 50:1 TO DSPLCD THLD.

Airport Ownership and Management from official FAA records

Ownership: Publicly-owned
Owner: HILLSBOROUGH COUNTY AVIATION AUTH
PO BOX 22287
TAMPA, FL 33622
Phone (813) 870-8711
CONTACT PERSON: JOHN TILIACOS
Manager: BRETT FAY
PO BOX 22287
TAMPA, FL 33606
Phone (813) 870-8735
AIRPORT PHYSICAL ADDRESS: 825 SEVERN BOULEVARD, TAMPA FL 33622 813-251-1752

Airport Operational Statistics

Aircraft based on the field: 110
Single engine airplanes: 85
Multi engine airplanes: 14
Jet airplanes: 2
Helicopters: 9
    
Aircraft operations: avg 147/day *
54% transient general aviation
39% local general aviation
7% air taxi
* for 12-month period ending 15 December 2016

Additional Remarks

SHIP CHANNEL IN APCH TO RYS 18 & 22.
OCEAN GOING VESSELS IN SHIP CHANNEL EAST.
GULLS ON AND INVOF ARPT.
TWY E CLSD TO ACFT WITH WING SPANS IN EXCESS OF 40 FT.
BE ALERT: MACDILL AFB LCTD 4 MILES SW.
BE AWARE OF HOSPITAL HELIPAD TFC 1 NM NORTH USING UNICOM FREQ OF 122.825.

Instrument Procedures

NOTE: All procedures below are presented as PDF files. If you need a reader for these files, you should download the free Adobe Reader.

NOT FOR NAVIGATION. Please procure official charts for flight.
FAA instrument procedures published for use from 6 December 2018 at 0901Z to 3 January 2019 at 0900Z.

 
STARs - Standard Terminal Arrivals
BRDGE EIGHT   download (236KB)
DARBS THREE   download (165KB)
LZARD SIX   download (236KB)
 
IAPs - Instrument Approach Procedures
RNAV (GPS) RWY 22   download (218KB)
RNAV (GPS) RWY 36   download (229KB)
NOTE: Special Alternate Minimums apply   download (22KB)
NOTE: Special Take-Off Minimums/Departure Procedures apply   download (162KB)

Other nearby airports with instrument procedures:

KMCF - MacDill Air Force Base (5 nm SW)
KTPA - Tampa International Airport (6 nm NW)
KVDF - Tampa Executive Airport (8 nm NE)
KPIE - St Pete-Clearwater International Airport (13 nm W)
KSPG - Albert Whitted Airport (13 nm SW)
KPCM - Plant City Airport (16 nm E)
KCLW - Clearwater Air Park (17 nm W)
 
Loc | Ops | Rwys | IFR | FBO | Links
Com | Nav | Svcs | Stats | Notes


 
Area around KTPF (Peter O Knight Airport)
 
Road maps at: MapQuest Bing Google
 
Aerial photo
WARNING: Photo may not be current or correct
Aerial photo of KTPF (Peter O Knight Airport)
Photo courtesy of PhotosFromTheAir.com
Photo taken 27-Feb-2012
looking north.

Do you have a better or more recent aerial photo of Peter O Knight Airport that you would like to share? If so, please send us your photo.

 
Sectional chart

 
Airport distance calculator
Flying to Peter O Knight Airport? Find the distance to fly.

From to KTPF

Sunrise and sunset
Times for 12-Dec-2018
 Local
(UTC-5)
 Zulu
(UTC)
Morning civil twilight06:4711:47
Sunrise07:1312:13
Sunset17:3522:35
Evening civil twilight18:0023:00

Current date and time
Zulu (UTC)  12-Dec-2018 18:07:28
Local (UTC-5)  12-Dec-2018 13:07:28
 
METAR
KTPF 121755Z AUTO 06005KT 10SM CLR 17/08 A3025 RMK AO2
KMCF 
5nm SW 
121756Z AUTO 09007KT 10SM CLR 16/07 A3024 RMK AO2 SLP243 T01630070 10166 20050 58029 FZRANO $
KTPA 
5nm NW 
121753Z VRB04KT 10SM BKN250 17/07 A3025 RMK AO2 PRESFR SLP242 T01720072 10178 20067 58031
KVDF 
8nm NE 
121755Z AUTO 12004KT 10SM CLR 17/08 A3026 RMK AO2
KPIE 
12nm W 
121753Z 06005KT 10SM CLR 14/07 A3024 RMK AO2 PRESFR SLP240 T01390072 10144 20083 58032
KSPG 
13nm SW 
121753Z 07007KT 10SM CLR 15/08 A3023 RMK AO2 PRESFR SLP236 T01500078 10150 20100 58030
KPCM 
16nm E 
121755Z AUTO 00000KT 10SM CLR 18/08 A3028 RMK AO2
KCLW 
17nm W 
121755Z AUTO 10004KT 10SM CLR 16/06 A3024 RMK AO2
TAF
KMCF 
5nm SW 
121700Z 1217/1323 07005KT 9999 FEW250 QNH3020INS BECMG 1223/1224 05007KT 9999 FEW035 SCT250 QNH3013INS BECMG 1308/1309 08009KT 9999 SCT030 BKN050 QNH3010INS TX20/1317Z TN11/1311Z
KTPA 
5nm NW 
121734Z 1218/1324 04006KT P6SM FEW250 FM130600 07005KT P6SM SCT100 BKN200 FM131400 10007KT P6SM SCT040 BKN100 BKN200 FM132000 13008KT P6SM SCT050 OVC100
KPIE 
12nm W 
121734Z 1218/1318 05005KT P6SM FEW250 FM130000 05004KT P6SM FEW200 FM130400 08006KT P6SM SCT100 BKN200 FM131500 11009KT P6SM SCT040 BKN100 BKN200
NOTAMs
Click for the latest NOTAMs
NOTAMs are issued by the DoD/FAA and will open in a separate window not controlled by AirNav.

 

 
 

FBO, Fuel Providers, and Aircraft Ground Support

  
 Business Name 
 
 Contact 
 
 Services / Description 
 
Fuel Prices
 
Comments
  
 Atlas Aviation
813-251-1752
[web site]
[email]
Aviation fuel, Oxygen service, Aircraft parking (ramp or tiedown), Hangars, Passenger terminal and lounge, Flight training, Aircraft rental, ...
 
Courtesy car   Hertz  
 
More info about Atlas Aviation
Shell
100LL Jet A
FS $6.09 $5.79 
 Updated 05-Dec-2018
 
   6 read write
FS=Full service
Update Fuel Prices
 

Would you like to see your business listed on this page?

 If your business provides an interesting product or service to pilots, flight crews, aircraft, or users of the Peter O Knight Airport, you should consider listing it here.  To start the listing process, click on the button below
 
Add a business
 

Other Pages about Peter O Knight Airport

Update a link
 
Copyright © AirNav, LLC. All rights reserved. Privacy Policy  Contact